TimeMST,TemperatureF,Dew PointF,Humidity,Sea Level PressureIn,VisibilityMPH,Wind Direction,Wind SpeedMPH,Gust SpeedMPH,PrecipitationIn,Events,Conditions,WindDirDegrees,DateUTC
12:53 AM,25.0,18.0,75,30.34,10.0,Calm,Calm,-,N/A,,Overcast,0,2013-02-13 07:53:00
1:53 AM,25.0,18.0,75,30.32,10.0,ESE,3.5,-,N/A,,Overcast,110,2013-02-13 08:53:00
2:53 AM,25.0,18.0,75,30.30,10.0,East,5.8,-,N/A,,Overcast,100,2013-02-13 09:53:00
3:53 AM,23.0,18.0,81,30.32,10.0,Calm,Calm,-,N/A,,Mostly Cloudy,0,2013-02-13 10:53:00
4:53 AM,21.0,19.0,92,30.32,10.0,Calm,Calm,-,N/A,,Clear,0,2013-02-13 11:53:00
5:53 AM,19.9,17.1,89,30.34,10.0,Calm,Calm,-,N/A,,Scattered Clouds,0,2013-02-13 12:53:00
6:53 AM,21.0,17.1,85,30.35,10.0,Calm,Calm,-,N/A,,Scattered Clouds,0,2013-02-13 13:53:00
7:53 AM,21.9,19.0,89,30.35,10.0,East,3.5,-,N/A,,Partly Cloudy,90,2013-02-13 14:53:00
8:53 AM,25.0,17.1,72,30.37,10.0,SE,3.5,-,N/A,,Clear,130,2013-02-13 15:53:00
9:53 AM,27.0,17.1,66,30.37,10.0,Calm,Calm,-,N/A,,Clear,0,2013-02-13 16:53:00
10:53 AM,30.0,19.9,66,30.34,10.0,Calm,Calm,-,N/A,,Clear,0,2013-02-13 17:53:00
11:53 AM,33.1,19.9,59,30.30,10.0,Calm,Calm,-,N/A,,Clear,0,2013-02-13 18:53:00
12:53 PM,34.0,19.9,56,30.28,10.0,NW,5.8,-,N/A,,Clear,320,2013-02-13 19:53:00
1:53 PM,36.0,16.0,44,30.25,10.0,WNW,3.5,-,N/A,,Clear,290,2013-02-13 20:53:00
2:53 PM,36.0,19.9,52,30.23,10.0,NW,8.1,-,N/A,,Clear,320,2013-02-13 21:53:00
3:53 PM,36.0,23.0,59,30.23,10.0,NW,12.7,-,N/A,,Clear,320,2013-02-13 22:53:00
4:53 PM,35.1,25.0,67,30.24,10.0,NW,11.5,-,N/A,,Clear,320,2013-02-13 23:53:00
5:53 PM,32.0,24.1,73,30.25,10.0,NNW,4.6,-,N/A,,Clear,340,2013-02-14 00:53:00
6:53 PM,30.0,24.1,79,30.26,10.0,North,3.5,-,N/A,,Clear,350,2013-02-14 01:53:00
7:53 PM,28.9,23.0,78,30.27,10.0,Calm,Calm,-,N/A,,Clear,0,2013-02-14 02:53:00
8:53 PM,26.1,24.1,92,30.27,10.0,Calm,Calm,-,N/A,,Clear,0,2013-02-14 03:53:00
9:53 PM,27.0,23.0,85,30.27,10.0,ENE,3.5,-,N/A,,Clear,70,2013-02-14 04:53:00
10:53 PM,27.0,23.0,85,30.24,10.0,ENE,4.6,-,N/A,,Clear,60,2013-02-14 05:53:00
11:53 PM,27.0,23.0,85,30.23,10.0,Calm,Calm,-,N/A,,Clear,0,2013-02-14 06:53:00